Weather History for Marion, OH

Change the Weather History Date:

Thursday, November 15, 2012

  Actual Average (KDLZ) Record (KDLZ)
Temperature  
Mean Temperature 32 °F -  
Max Temperature 44 °F 50 °F 71 °F (1971)
Min Temperature 21 °F 29 °F 14 °F (1986)
Degree Days  
Heating Degree Days 32    
Moisture  
Dew Point 27 °F    
Average Humidity 79    
Maximum Humidity 92    
Minimum Humidity 55    
Precipitation  
Precipitation 0.00 in - - ()
Sea Level Pressure  
Sea Level Pressure 30.39 in    
Wind  
Wind Speed 2 mph (North)    
Max Wind Speed 7 mph    
Max Gust Speed -    
Visibility 8 miles    
Events      
Averages and records for this station are not official NWS values.
T = Trace of Precipitation, MM = Missing Value Source: NWS Daily Summary

Daily Weather History Graph

Daily Weather History Graph

Search for Another Location

Airport:

Trip Planner

Search our weather history database for the weather conditions in past years. The results will help you decide how hot, cold, wet, or windy it might be!

Date:

Astronomy

Nov. 15, 2012 Rise Set
Actual Time 7:19 AM EST 5:14 PM EST
Civil Twilight 6:50 AM EST 5:43 PM EST
Nautical Twilight 6:16 AM EST 6:16 PM EST
Astronomical Twilight 5:44 AM EST 6:48 PM EST
Moon 9:14 AM EST (11/15) 7:04 PM EST (11/15)
Length of Visible Light 10h 53m
Length of Day
9h 54m
Waxing Crescent, 5% of the Moon is Illuminated
Nov 15
Waxing Crescent
Nov 20
First Quarter
Nov 28
Full
Dec 6
Last Quarter
Dec 13
New

Hourly Weather History & Observations

Time (EST) Temp. Windchill Dew Point Humidity Pressure Visibility Wind Dir Wind Speed Gust Speed Precip Events Conditions
12:53 AM 25.0 °F - 23.0 °F 92% 30.43 in 6.0 mi Calm Calm - N/A   Clear
1:53 AM 25.0 °F 20.7 °F 23.0 °F 92% 30.40 in 5.0 mi NE 3.5 mph - N/A   Clear
2:53 AM 24.1 °F 17.0 °F 21.9 °F 91% 30.40 in 6.0 mi North 5.8 mph - N/A   Clear
3:53 AM 26.1 °F 21.9 °F 23.0 °F 88% 30.37 in 6.0 mi NE 3.5 mph - N/A   Clear
4:53 AM 26.1 °F - 21.9 °F 84% 30.38 in 7.0 mi Calm Calm - N/A   Clear
5:53 AM 25.0 °F 20.7 °F 21.9 °F 88% 30.40 in 6.0 mi North 3.5 mph - N/A   Clear
6:53 AM 21.9 °F - 19.9 °F 92% 30.41 in 5.0 mi Calm Calm - N/A   Clear
7:53 AM 24.1 °F - 21.9 °F 91% 30.42 in 4.0 mi Calm Calm - N/A   Clear
8:53 AM 30.0 °F - 27.0 °F 88% 30.41 in 4.0 mi Calm Calm - N/A   Clear
9:53 AM 35.1 °F - 28.9 °F 78% 30.41 in 7.0 mi Calm Calm - N/A   Clear
10:53 AM 39.0 °F 35.7 °F 28.0 °F 65% 30.40 in 10.0 mi North 4.6 mph - N/A   Clear
11:53 AM 42.1 °F 37.7 °F 28.0 °F 58% 30.39 in 10.0 mi NNE 6.9 mph - N/A   Clear
12:53 PM 43.0 °F 41.3 °F 28.0 °F 56% 30.37 in 10.0 mi NNE 3.5 mph - N/A   Clear
1:53 PM 44.1 °F 42.5 °F 28.9 °F 55% 30.36 in 10.0 mi NNE 3.5 mph - N/A   Clear
2:53 PM 44.1 °F 40.8 °F 28.9 °F 55% 30.35 in 10.0 mi North 5.8 mph - N/A   Clear
3:53 PM 43.0 °F 40.3 °F 30.0 °F 60% 30.35 in 10.0 mi North 4.6 mph - N/A   Clear
4:53 PM 39.9 °F 36.7 °F 30.9 °F 70% 30.36 in 10.0 mi North 4.6 mph - N/A   Clear
5:53 PM 36.0 °F 32.1 °F 30.0 °F 79% 30.36 in 10.0 mi North 4.6 mph - N/A   Clear
6:53 PM 37.0 °F 33.3 °F 30.0 °F 76% 30.37 in 10.0 mi North 4.6 mph - N/A   Clear
7:53 PM 37.0 °F 33.3 °F 30.0 °F 76% 30.38 in 10.0 mi NNW 4.6 mph - N/A   Clear
8:53 PM 33.1 °F 28.7 °F 28.9 °F 85% 30.38 in 9.0 mi North 4.6 mph - N/A   Clear
9:53 PM 32.0 °F - 28.0 °F 85% 30.38 in 8.0 mi Calm Calm - N/A   Clear
10:53 PM 30.0 °F - 28.0 °F 92% 30.38 in 6.0 mi Calm Calm - N/A   Clear
11:53 PM 28.0 °F - 26.1 °F 92% 30.39 in 4.0 mi Calm Calm - N/A   Clear